Location: Unspecified
(48.8656°N, 0.0000°E)
Time: 14:58:35
(UTC+00:00)

SR - Pass Details

Date: 28 June 2019
Orbit: 578 x 878 km, 66.7° (Epoch: 24 August)

Event Time Altitude Azimuth Distance (km) Brightness Sun altitude
Rises 03:16:30 0° 235° (SW) 2,785 - -6.0°
Exits shadow 03:18:01 - 239° (WSW) 2,187 ? -5.8°
Reaches altitude 10° 03:18:47 10° 242° (WSW) 1,895 ? -5.7°
Maximum altitude 03:22:48 41° 314° (NW) 864 ? -5.2°
Drops below altitude 10° 03:27:00 10° 25° (NNE) 1,983 ? -4.7°
Sets 03:29:27 0° 33° (NNE) 2,932 ? -4.5°
